Snowfall_Accumulation
0.0 0.0 0.0 0.0 0.0 0.0 0.0 0.0 2.5 3.0 0.1 0.0 0.0 0.0 0.0 0.0 0.0 0.0 0.0 0.0 0.0 0.0 0.0 0.0 0.0 0.0 0.0 0.0 0.0 0.0 0.0 0.0 0.0 0.0 0.0 0.0 0.0 0.0
0.0 0.0 0.0 0.0 0.0 0.0 0.0 0.0 0.0 1.5 1.6 0.0 0.0 0.0 0.0 0.0 0.0 0.0 0.0 0.0 0.0 0.0 0.0 0.0 0.0 0.0 0.0 0.0 0.0 0.0 0.0 0.0 0.0 0.0 0.0 0.0 0.0 0.0
0.0 0.0 0.0 0.0 0.0 0.0 0.0 0.0 0.0 0.1 0.3 0.2 0.1 0.0 0.0 0.0 0.0 0.0 0.0 0.0 0.0 0.0 0.0 0.0 0.0 0.0 0.0 0.0 0.0 0.0 0.0 0.0 0.0 0.0 0.0 0.0 0.0 0.0
0.0 0.0 0.0 0.0 0.0 0.1 0.0 0.0 0.1 0.1 0.2 0.6 0.2 0.1 0.0 0.0 0.0 0.0 0.0 0.0 0.0 0.0 0.0 0.0 0.0 0.0 0.0 0.0 0.0 0.0 0.0 0.0 0.0 0.0 0.0 0.0 0.0 0.0
0.0 0.0 0.1 0.0 0.2 0.3 0.1 0.1 0.1 0.1 0.1 0.5 0.2 0.0 0.0 0.0 0.0 0.0 0.0 0.0 0.0 0.0 0.0 0.0 0.0 0.0 0.0 0.0 0.0 0.0 0.0 0.0 0.0 0.0 0.0 0.0 0.0 0.0
0.3 0.3 0.3 0.1 0.3 0.3 0.1 0.2 0.1 0.3 0.2 0.2 0.2 0.2 0.2 0.0 0.0 0.0 0.0 0.0 0.0 0.0 0.0 0.0 0.0 0.0 0.0 0.0 0.0 0.0 0.0 0.0 0.0 0.0 0.1 0.2 0.3 0.2
0.0 0.0 0.0 0.0 0.1 0.0 0.4 0.6 0.6 0.5 0.6 0.6 2.0 3.7 5.9 4.4 3.6 1.7 2.4 2.3 3.5 0.9 2.2 1.9 1.2 0.8 0.4 0.1 0.1 0.1 0.0 0.1 0.1 0.1 0.3 0.2 0.4 0.4
3.2 3.5 2.7 0.1 0.1 0.1 0.1 0.2 0.1 0.8 3.6 3.0 4.6 4.5 3.7 5.8 6.0 5.6 6.4 8.4 12.2 6.8 5.5 8.4 4.5 2.2 2.6 1.6 0.6 0.9 0.8 0.7 0.6 0.9 1.0 1.5 1.1 1.9
3.9 3.7 4.8 4.8 4.7 4.7 2.0 1.7 1.5 0.3 1.4 5.0 10.2 7.8 9.4 5.1 5.0 7.8 7.1 8.6 10.9 8.8 7.8 14.2 10.1 11.6 8.7 7.5 4.3 3.0 2.3 2.9 2.7 3.9 3.9 3.0 5.5 8.1
2.2 3.1 3.1 3.0 2.8 3.1 3.4 3.4 3.6 3.5 4.0 3.0 5.4 5.3 5.7 5.3 5.0 6.7 8.7 10.5 9.5 9.8 7.9 16.5 11.8 13.4 9.5 9.5 6.5 7.0 6.4 5.0 4.4 5.2 5.8 5.9 5.8 6.7
0.9 1.3 2.2 2.3 3.3 2.6 5.4 5.6 3.9 3.8 3.0 2.5 3.7 3.6 4.2 4.3 4.2 8.8 13.4 14.7 15.2 11.3 7.4 9.7 10.8 11.7 10.2 9.2 8.3 5.1 4.4 3.6 3.2 3.2 2.9 3.7 4.9 5.3
2.7 1.0 2.4 1.9 2.5 2.4 6.2 7.4 7.8 5.1 3.9 4.2 4.8 5.3 5.6 5.9 5.7 5.3 6.8 15.4 12.0 10.0 6.9 10.0 10.8 9.4 14.1 10.0 7.4 6.0 6.2 5.0 7.3 6.4 3.8 2.7 3.6 4.6
6.2 2.9 2.1 4.0 3.5 2.7 5.9 7.6 9.7 5.9 6.8 5.6 4.7 5.3 5.3 6.2 6.8 6.3 6.7 10.9 16.2 12.5 7.1 9.2 10.0 8.4 10.9 8.5 7.7 10.9 8.1 7.8 9.3 7.2 5.2 4.0 4.5 4.7
11.5 6.4 7.9 8.9 8.0 9.1 8.4 10.1 9.6 7.2 9.5 9.8 11.4 10.1 9.4 8.4 7.0 6.6 7.2 6.7 5.8 6.1 4.9 7.5 15.2 9.3 10.7 12.7 8.6 10.4 10.8 10.6 9.1 7.9 7.5 4.7 7.5 5.2
14.9 19.9 20.0 15.9 11.2 13.5 11.9 12.0 12.2 16.3 17.0 17.1 11.4 8.0 6.2 5.7 5.0 5.9 4.2 2.2 3.4 3.9 3.7 5.7 7.6 8.7 12.9 15.4 10.1 9.4 12.0 10.8 8.2 8.7 7.7 9.0 7.6 7.2
20.2 22.2 25.1 24.0 18.5 17.7 15.1 12.7 12.5 14.7 16.4 17.2 15.1 9.9 9.2 6.4 6.4 4.5 8.5 6.3 9.1 6.5 5.1 5.8 6.3 9.5 16.9 12.0 9.8 11.1 6.6 8.7 6.2 6.2 6.4 7.3 6.9 6.2
19.5 19.7 23.4 24.1 22.1 17.9 16.1 12.4 13.3 14.0 15.7 15.5 15.5 15.2 13.8 13.0 11.9 9.4 10.7 10.1 14.4 9.6 8.4 6.3 5.4 6.3 7.4 9.2 14.3 7.8 6.5 6.3 6.5 5.4 5.9 6.5 6.7 6.9
23.1 26.0 27.1 29.8 28.6 29.0 27.8 21.6 18.2 16.3 14.0 11.6 13.8 14.5 17.0 17.2 14.7 12.4 12.4 16.5 16.6 14.9 11.5 10.4 11.4 15.3 13.6 11.7 5.9 8.1 10.2 8.8 11.1 5.0 6.4 7.6 7.7 8.1
19.6 20.0 25.0 27.3 27.2 24.6 26.7 26.2 26.9 27.0 22.5 21.4 19.9 18.8 16.9 18.1 19.4 18.1 16.3 16.9 19.1 16.5 12.8 12.7 14.5 18.7 21.9 21.6 12.6 5.1 9.4 5.5 5.8 8.4 5.6 5.7 7.3 9.0
10.9 13.0 16.3 16.8 17.9 20.5 21.3 25.6 24.8 25.1 26.9 23.8 23.8 22.6 21.9 17.4 13.5 13.6 13.2 16.7 15.7 14.4 11.2 12.9 14.3 17.8 25.4 19.9 21.4 13.5 3.8 5.8 10.1 9.9 8.6 8.5 10.2 6.9
11.8 11.7 12.6 12.5 12.2 13.5 16.3 19.2 22.2 24.3 25.0 25.0 24.0 23.1 21.3 21.7 22.2 19.0 14.7 14.9 14.2 11.2 11.9 12.2 12.7 15.5 17.1 13.2 17.3 14.5 17.4 8.0 5.9 11.2 13.9 17.6 19.8 15.9
7.1 7.5 8.7 10.5 11.8 11.5 11.6 12.5 13.9 15.4 17.8 18.4 19.7 20.5 19.5 17.3 20.6 20.9 21.0 22.7 19.0 13.8 13.0 10.3 9.3 13.9 14.7 18.6 21.8 18.2 19.2 16.1 14.9 13.1 11.4 11.4 15.1 23.6
6.6 6.8 6.3 7.0 7.4 7.8 8.5 9.4 9.4 10.4 12.1 14.0 15.2 16.0 17.0 18.7 16.3 16.6 18.1 18.8 20.4 20.5 17.7 17.2 15.3 14.3 20.5 21.3 19.9 21.2 24.4 17.7 22.4 22.3 25.2 13.1 8.4 7.0